Location: M?digepalle
(16.1753°N, 80.3496°E)
Time: 07:17:13
(UTC+00:00)

Cosmos 2322 Rocket - Pass Details

Date: 29 October 2020
Orbit: 832 x 851 km, 71.0° (Epoch: 28 November)

Event Time Altitude Azimuth Distance (km) Brightness Sun altitude
Rises 14:31:44 0° 207° (SSW) 3,393 5.7 -34.4°
Reaches altitude 10° 14:34:14 10° 212° (SSW) 2,461 5.0 -35.0°
Enters shadow 14:37:29 33° 230° (SW) 1,381 3.6 -35.8°
